Location: Allentsteig
(48.6833°N, 15.3167°E)
Time: 01:53:47
(UTC+00:00)

Terra - Pass Details

Date: 18 September 2020
Orbit: 701 x 703 km, 98.2° (Epoch: 29 October)

Event Time Altitude Azimuth Distance (km) Brightness Sun altitude
Exits shadow 21:57:48 15° 313° (NW) 1,855 4.5 -38.5°
Drops below altitude 10° 21:58:53 10° 322° (NW) 2,182 5.0 -38.6°
Sets 22:01:32 0° 336° (NNW) 3,106 6.1 -38.7°
